Waupaca, WI (54981)

10:28 PM CDT on August 30, 2015 (GMT -0500)
Waupaca_9er | | Change Station
CLOSE
Current Station
Personal Weather Station
Location: Waupaca, WI
Elevation: 919 ft
Nearby Weather Stations

Elev 919 ft 44.36 °N, 89.09 °W | Updated 5 seconds ago

Clear
Clear
65.3 °F
Feels Like 65.3 °F
N
0.0
Wind Variable Wind from North
Gusts 0.0 mph

Today
High -- | Low -- °F
--% Chance of Precip.
Yesterday
High -- | Low -- °F
Precip. -- in
6:16 AM 7:36 PM
Full, 97% visible
Pressure 30.00 in
Visibility 4.0 miles
Clouds Clear
Dew Point 65 °F
Humidity 99%
Rainfall 0.24 in
Snow Depth Not available.
UV 0 out of 12
Pollen 10.00 out of 12
Air Quality Not available.
Flu Activity Not available.
METAR KPCZ 310315Z AUTO 00000KT 4SM BR CLR 19/18 A3000 RMK AO2 T01870183
Pressure 30.00 in
Visibility 4.0 miles
Clouds Clear
Dew Point 65 °F
Humidity 99%
Rainfall 0.24 in
Snow Depth Not available.
UV 0 out of 12
Pollen 10.00 out of 12
Air Quality Not available.
Flu Activity Not available.
METAR KPCZ 310315Z AUTO 00000KT 4SM BR CLR 19/18 A3000 RMK AO2 T01870183

10-Day Weather Forecast

×

Almanac

Astronomy

Aug. 30, 2015 Rise Set
Actual Time
Civil Twilight
Nautical Twilight
Astronomical Twilight
Moon
Length of Visible Light
Length of Day
Tomorrow will be .
, % of the Moon is Illuminated

Today's Extremes

State Highs State Lows

Community

WunderPhotos

Upload Photos

1,851,167 photos uploaded!

WunderBlogs® & News

Nearby

Air Quality

  Air Quality AQ Index Pollutant
Not available.

Snow Depth

Station Depth Elevation

Earthquake Activity

City Distance Mag. Time & Date
Minimum magnitude displayed is 2.5.

Coastal Water Temperatures

Place Temperature

Stations

Nearby Weather Stations

Station Location Temp. Windchill Dew Point Humidity Wind Precip. Elev Updated Type